Showing default

FLOCK 4Q 29, 58304

Orbit data source: Space-Track

FLOCK 4Q 29, 58304 is a payload satellite owned by Planet (US) in SSO that was launched on Sat, 11 Nov 2023 UTC via an FALCON 9 launch vehicle from the Air Force Western Test Range (AFWTR). Payload-class satellites include a variety of spacecraft equipped with specific instruments for various scientific and technological missions. These include communications satellites like Starlink; space stations such as the ISS; scientific satellites like the Hubble; Earth observation satellites from companies like Planet Labs, Umbra, and HawkEye 360; GPS; miniature CubeSats for education and research; and military/defense satellites.

Loading next visibility...
Identifier
58304, 2023-174BA
Orbit
SSO
Country
Flag of USUS
Related business
Manufacturer
Planet
Mission
Non-operational Commercial Imaging
Bus & Motor
CUBESAT 3U, Unknown motor
Mass
5.7 kg wet, 5.7 kg dry
Launch date (UTC)
2023-11-11 (3 years ago)
Launch vehicle
FALCON 9
Launch site
Air Force Western Test Range (AFWTR)
Object type
Payload
Rocket body
Debris
Shape & HBR
Box + 2 Pan, 1.0 m
Radar Cross Section
0.072 m², Medium (>0.1 m² and < 1m²)

Expand to show TLE details & history
Last TLE update: 1 day ago

TLE from 1 day ago
0 FLOCK 4Q 29
1 58304U 23174BA  26235.71139131  .00159975  00000-0  13050-2 0  9998
2 58304  97.3874 330.4840 0005534 230.8927 129.1843 15.70102064156309
Epoch: 2026-08-23T17:04Z
TLE epoch observation values (Epoch: 2026-08-23T17:04:24.209Z)
Latitude
-0.00007°
Longitude
102.37961°
Altitude
364.121 km
Speed
7.69 km/s
True Right ascension
22h 01m 56s
True Declination
0° 00' 00"
Sunlit
Object was in full shadow at epoch
Visualization orbit readout
Latitude
Unknown
Longitude
Unknown
Altitude
Unknown
Speed
Unknown
Apparent Right ascension
Unknown
Apparent Declination
Unknown
Sunlit
N/A
Visualization observer readout
Local Sidereal Time
19:32:44
Azimuth
Unknown
Elevation
Unknown
Doppler factor
Unknown
Orbital elements
Apogee altitude
359.23 km
Perigee altitude
351.777 km
Semi-major axis
6,733.641 km
Eccentricity
0.00055
Inclination
97.3874°
RAAN
330.484°
Arg. of periapsis
230.8927°
True anomaly
129.23343°
Mean anomaly
129.1843°
Eccentric anomaly
129.20887°
Mean motion
3.92797 °/min
Orbital period
91.65 mins
BSTAR
0.001305
Loading maneuver chart data...
Computing Atmospheric mass density...
Loading historical data...
Loading historical data...
Loading historical data...
Loading historical data...
Loading historical data...
Loading historical data...
Loading historical data...

Documentation

Showing up to 5 results
|